Location: Beierfelde
(51.7000°N, 10.2500°E)
Time: 08:46:59
(UTC+00:00)

Daily predictions for brighter satellites

Satellite Brightness Start Highest point End
(mag) Time Altitude Azimuth Time Altitude Azimuth Time Altitude Azimuth
Cosmos 372 Rocket 4.1 15:37:49 10° NNW 15:42:59 54° ENE 15:48:07 10° SE
Cosmos 2322 Rocket 3.3 15:38:40 10° NNW 15:43:10 23° NE 15:47:40 10° E
Cosmos 1937 Rocket 3.5 15:39:02 10° NNW 15:44:24 79° ENE 15:49:43 10° SSE
SJ 16-02 4.2 15:41:23 10° NW 15:44:29 19° W 15:47:33 10° SW
Meteor PRIRODA 3.9 15:42:08 10° SE 15:45:36 45° ENE 15:49:04 10° N
Lacrosse 5 rocket 1.2 15:41:57 10° WNW 15:45:46 65° NNE 15:49:46 10° ESE
Cosmos 1980 Rocket 2.2 15:41:33 10° NNW 15:47:13 66° NE 15:52:50 10° SE
USA 234 3.3 15:40:57 10° E 15:47:28 71° NNE 15:53:58 10° WNW
YAOGAN 6 4.0 15:45:26 10° S 15:48:57 44° W 15:52:31 10° NNW
Cosmos 2026 Rocket 4.1 15:45:21 10° N 15:51:21 51° ENE 15:57:14 10° SSE
NOSS 2-2 (D) 4.4 15:47:16 10° NW 15:52:12 85° SW 15:59:12 10° SE
Cosmos 1666 Rocket 4.5 15:48:24 10° N 15:52:15 28° ENE 15:56:03 10° SE
Cosmos 1125 Rocket 4.5 15:49:05 10° N 15:53:26 26° NE 15:57:49 10° ESE
Cosmos 1634 Rocket 4.5 15:50:13 10° SSE 15:56:03 41° E 16:01:53 10° NNE
Cosmos 2369 3.8 15:53:06 10° NNW 15:58:53 88° WSW 16:04:36 10° SSE
H-2A R/B 2.8 15:56:08 10° ESE 16:00:26 29° ENE 16:04:41 10° N
Cosmos 1812 4.0 16:00:02 10° SE 16:03:02 22° E 16:06:02 10° NE
ATLAS CENTAUR R/B 3.4 16:00:36 10° WNW 16:03:57 21° NNW 16:07:29 10° NNE
Cosmos 2237 Rocket 4.2 16:02:45 10° N 16:03:58 11° N 16:05:12 10° NNE
SL-16 R/B 2.8 15:59:02 10° NNW 16:04:11 34° NE 16:09:18 10° ESE
MOS 1 Rocket 3.9 15:59:44 10° N 16:04:39 61° WNW 16:09:13 10° SSW
USA 308 2.9 16:00:27 10° WNW 16:04:41 67° N 16:08:56 10° E
Cosmos 2221 3.2 16:01:13 10° SSW 16:05:26 55° WNW 16:09:44 10° N
Okean O Rocket 3.0 16:02:32 10° E 16:05:31 18° ENE 16:08:30 10° NNE
CZ-2C R/B 2.8 16:02:22 10° SSE 16:07:12 86° ENE 16:11:58 10° NNW
Sich 1 3.0 16:03:50 10° N 16:08:07 62° ENE 16:12:24 10° SSE
Cosmos 1500 Rocket 4.0 16:03:45 10° NNW 16:08:11 67° W 16:12:31 10° S
Cosmos 2082 Rocket 2.6 16:04:06 10° S 16:09:27 44° ESE 16:14:48 10° NE
Cosmos 540 Rocket 3.5 16:05:22 10° S 16:10:23 64° ESE 16:15:28 10° NNE
ARGOS 4.1 16:07:18 10° ESE 16:11:38 25° ENE 16:15:58 10° N
FengYun 1-2 T 4.2 16:09:26 10° SSE 16:14:59 76° ENE 16:20:32 10° NNW
COSMOS 2455 3.0 16:10:03 10° SSW 16:15:56 58° ESE 16:21:45 11° NE
SMAP 3.0 16:13:05 10° SSE 16:17:40 63° ENE 16:22:18 10° N
NOAA 6 4.0 16:14:06 10° SSE 16:19:11 67° ENE 16:24:17 10° N
Cosmos 1805 Rocket 3.6 16:16:18 10° NNW 16:20:40 81° W 16:24:59 10° S
Cosmos 2278 3.7 16:15:37 10° NNW 16:21:22 83° ENE 16:27:04 10° SSE
Cosmos 1933 3.3 16:18:37 10° S 16:22:40 85° E 16:26:43 10° NNE
Cosmos 1833 Rocket 2.8 16:17:04 10° SSW 16:22:42 81° WNW 16:28:24 10° NNE
Cosmos 2333 Rocket 3.6 16:19:07 10° NNW 16:23:16 20° NNE 16:26:02 14° ENE
Cosmos 1602 4.0 16:19:42 10° NNW 16:23:34 70° W 16:27:25 10° S
SL-16 R/B 4.3 16:24:29 10° NNW 16:25:49 11° N 16:27:09 10° N
CZ-4B DEB 4.2 16:22:55 10° SSE 16:28:21 64° ENE 16:33:47 10° N
USA 305 2.8 16:24:50 10° WNW 16:29:06 78° NNE 16:32:51 13° ESE
CZ-2C R/B 3.7 16:25:19 11° NE 16:29:09 23° E 16:33:13 10° SE
Cosmos 1655 Rocket 4.5 16:24:33 10° N 16:30:29 38° ENE 16:36:20 10° SE
Cosmos 2219 Rocket 3.7 16:27:28 10° NNW 16:31:21 18° NNE 16:33:20 16° NE
Cosmos 1356 Rocket 4.5 16:28:00 10° N 16:31:28 24° ENE 16:34:56 10° ESE
CZ-4B R/B 3.5 16:29:55 10° S 16:33:46 56° WSW 16:37:27 10° NNW
Cosmos 1500 3.2 16:30:06 10° NNW 16:33:51 81° W 16:37:34 10° S
Meteor 1-14 Rocket 4.3 16:28:12 10° N 16:34:03 70° ENE 16:39:59 10° SSE
Cosmos 44 Rocket 3.3 16:30:43 10° NW 16:35:43 88° NE 16:40:30 10° SE
Meteor 2-16 Rocket 4.4 16:32:08 10° N 16:38:16 68° ENE 16:44:22 10° SSE
COSMOS 2406 3.4 16:36:36 10° SW 16:42:21 76° WNW 16:48:00 11° NNE
Cosmos 1814 Rocket 4.1 16:38:09 10° S 16:43:16 58° ESE 16:47:38 14° NNE
Cosmos 921 Rocket 3.9 16:40:55 10° SSE 16:44:31 28° E 16:45:57 23° ENE
Cosmos 1570 Rocket 4.1 16:45:01 10° S 16:50:08 58° ESE 16:54:14 16° NE
MOS 1-B Rocket 4.3 16:44:48 10° NNE 16:50:37 49° E 16:57:14 10° S
Cosmos 2298 Rocket 4.0 16:48:54 10° NNW 16:54:14 69° ENE 16:59:33 10° SSE
CZ-4B R/B 3.1 16:49:11 10° SE 16:54:26 58° ENE 16:59:39 10° N
Cosmos 371 Rocket 4.3 16:50:28 10° N 16:54:31 25° NE 16:55:08 25° ENE
USA 267 3.4 16:50:26 20° ENE 16:55:04 59° SE 17:01:31 10° SW
CZ-2D R/B 3.1 16:52:53 10° SSE 16:56:42 81° ENE 17:00:32 10° NNW
MOS 1-B 4.3 16:53:32 10° SSE 16:59:19 81° ENE 17:05:08 10° NNW
ATLAS CENTAUR R/B 2.5 16:50:46 10° WSW 16:59:25 85° NNW 17:01:31 29° ENE
Cosmos 1939 Rocket 4.0 16:55:31 10° S 16:59:28 47° W 17:03:24 10° NNW
COSMO-SKYMED 1 3.2 16:59:10 28° ENE 17:00:37 35° E 17:04:36 10° SSE
Cosmos 1633 Rocket 3.0 16:56:23 10° NNW 17:00:48 86° W 17:05:11 10° S
USA 306 2.8 16:57:08 10° WNW 17:01:25 85° SSW 17:03:51 25° ESE
Cosmos 1151 Rocket 2.9 16:58:12 10° S 17:02:32 80° E 17:06:56 10° NNE
Cosmos 1666 2.9 16:58:51 10° NNW 17:02:34 69° W 17:06:16 10° S
Meteor 1-27 Rocket 4.4 16:58:13 10° SE 17:02:53 29° E 17:04:01 27° ENE
Cosmos 1782 3.6 17:00:48 10° SSW 17:04:42 52° WNW 17:08:37 10° N
APEX 4.2 17:01:52 10° S 17:04:23 25° SE 17:04:23 25° SE
Cosmos 2360 Rocket 2.6 16:59:52 10° NNW 17:05:16 42° NE 17:08:17 23° ESE
Meteor 2-6 Rocket 4.2 17:00:03 10° S 17:05:38 62° E 17:11:07 10° NNE
ISS -0.5 17:05:05 10° WSW 17:06:17 12° SW 17:07:30 10° SSW
SeaSat 1 4.2 17:02:56 10° NNE 17:06:55 25° NW 17:10:52 10° W
SJ-11-01 4.3 17:02:37 10° SSE 17:07:16 58° ENE 17:11:55 10° N
Cosmos 2237 4.3 17:02:58 10° NNW 17:08:36 55° NE 17:13:44 12° SE
PAYLOAD B 4.3 17:03:47 10° SSE 17:09:24 82° WSW 17:15:02 10° NNW
Cosmos 1900 4.3 17:04:49 10° SSW 17:09:38 66° SE 17:11:53 31° NE
YAOGAN 1 3.6 17:11:21 28° NE 17:11:21 28° NE 17:14:03 10° N
Cosmos 1818 4.2 17:05:45 10° NW 17:11:09 58° SW 17:16:28 10° SSE
Cosmos 1536 3.9 17:14:11 10° N 17:16:30 29° NNE 17:16:30 29° NNE
ATLAS 5 CENTAUR R/B 2.0 17:10:39 10° NW 17:18:21 88° SW 17:19:38 36° SE
Cosmos 2279 Rocket 4.0 17:12:28 10° S 17:18:41 86° W 17:24:56 10° N
Cosmos 2266 Rocket 3.9 17:13:25 10° N 17:19:50 73° ENE 17:26:15 10° SSE
Cosmos 841 Rocket 4.2 17:15:07 10° SW 17:20:08 51° WNW 17:24:31 14° NNE
Meteor 2-15 4.3 17:15:00 10° S 17:21:01 66° E 17:27:03 10° NNE
ERBS 3.2 17:18:12 10° WNW 17:20:46 33° N 17:20:46 33° N
USA 307 3.0 17:17:42 10° WNW 17:21:58 74° SSW 17:23:33 37° SE
CZ-4C R/B 4.0 17:15:13 10° NW 17:22:03 47° WSW 17:29:58 10° SSE
Lacrosse 5 rocket 2.9 17:21:10 10° WNW 17:24:42 33° SW 17:28:25 10° SSE
SL-08 RB Rocket 3.7 17:21:24 10° SSE 17:25:56 59° ENE 17:30:28 10° N
NOSS 3-4 (A) 4.1 17:19:57 10° NW 17:26:17 46° NNE 17:28:52 34° ENE
NOSS 3-4 (C) 4.1 17:20:03 10° NW 17:26:22 46° NNE 17:28:56 34° ENE
Cosmos 1933 Rocket 3.4 17:23:35 10° N 17:27:56 70° ENE 17:32:15 10° SSE
Cosmos 2322 Rocket 2.1 17:22:22 10° NNW 17:28:07 82° ENE 17:33:50 10° SSE
ATLAS 2AS CENTAUR R/B 3.6 17:22:05 10° NW 17:28:58 36° NNE 17:31:18 29° NE
COSMOS 2428 3.7 17:24:09 10° NNW 17:28:43 28° NE 17:28:43 28° NE
Cosmos 2208 Rocket 4.0 17:24:01 10° SSW 17:29:27 88° WNW 17:32:51 24° NNE
Cosmos 2150 Rocket 4.2 17:24:37 10° NNW 17:29:47 71° WSW 17:35:00 10° SSE
USA 234 3.8 17:24:12 10° SE 17:30:38 58° SW 17:37:05 10° WNW
Cosmos 1980 Rocket 4.5 17:26:12 10° NW 17:30:47 26° WSW 17:35:19 10° SSW
Cosmos 1328 Rocket 3.7 17:28:12 10° SSW 17:32:38 73° WNW 17:36:01 17° N
Cosmos 1470 Rocket 3.9 17:29:30 10° NNW 17:33:58 68° W 17:38:24 10° S
Cosmos 1544 3.1 17:30:30 10° NNW 17:34:07 76° W 17:37:43 10° S
Cosmos 1125 Rocket 3.8 17:30:48 10° NNW 17:36:01 68° WSW 17:41:15 10° SSE
Cosmos 1867 4.1 17:33:31 10° S 17:38:27 39° ESE 17:38:27 39° ESE
Cosmos 1812 4.2 17:34:58 10° SW 17:38:34 37° WNW 17:41:44 13° N
X-37B 3.2 17:37:20 10° SSW 17:37:49 12° S 17:37:49 12° S
H-2A R/B 2.9 17:34:43 10° S 17:39:41 50° W 17:44:33 10° NNW
Meteor 1-11 Rocket 3.7 17:35:27 10° NNW 17:41:07 86° W 17:46:53 10° S
Okean O Rocket 1.8 17:36:55 10° S 17:41:21 75° WSW 17:45:50 10° NNW
GEOS 3 Rocket 3.6 17:41:55 51° ENE 17:42:46 58° NE 17:47:51 10° NW
Meteor 1-10 Rocket 4.1 17:37:02 10° S 17:42:46 86° E 17:47:11 17° NNE
Cosmos 2322 4.3 17:37:56 10° NNW 17:42:44 38° NE 17:42:44 38° NE
ATLAS CENTAUR R/B 3.6 17:41:22 10° NW 17:44:13 17° N 17:44:13 17° N
USA 308 3.3 17:40:25 10° WNW 17:44:37 59° SSW 17:45:22 50° SSE
USA 32 3.9 17:39:33 10° S 17:44:42 65° E 17:46:22 42° NNE
SL-16 R/B 2.7 17:43:02 10° NW 17:48:38 59° WSW 17:54:10 10° SSE
SKYMED 2 3.5 17:47:47 52° N 17:48:50 84° WNW 17:53:10 10° SSW
Cosmos 2237 Rocket 3.9 17:46:25 10° NNW 17:49:04 18° NNE 17:49:04 18° NNE
ARGOS 3.5 17:46:07 10° S 17:51:30 66° WSW 17:56:53 10° NNW
Cosmos 2082 Rocket 3.2 17:48:14 10° WSW 17:53:36 42° NW 17:56:57 21° N
CZ-4 R/B 3.8 17:58:56 13° N 17:58:56 13° N 17:59:23 10° NNW
COSMOS 2455 3.9 17:56:29 10° WSW 18:02:10 40° NW 18:04:54 26° NNE
Feng Yun 1-1 Rocket 4.5 18:00:26 10° SSE 18:06:21 76° WSW 18:12:12 10° NNW
Cosmos 2333 Rocket 2.4 18:03:00 10° NNW 18:08:04 57° NNE 18:08:04 57° NNE
USA 305 3.9 18:04:49 10° WNW 18:08:48 40° SW 18:08:52 39° SSW
CZ-2C R/B 2.9 18:06:50 24° N 18:09:53 61° WNW 18:14:58 10° SSW
SL-16 R/B 4.3 18:09:25 10° N 18:11:02 14° N 18:11:02 14° N
Cosmos 2219 Rocket 2.8 18:10:57 10° NNW 18:15:05 44° N 18:15:05 44° N
Aureole 3 Rocket 3.8 18:14:12 10° SSW 18:19:02 78° WNW 18:25:59 10° N
Cosmos 921 Rocket 4.3 18:18:45 10° SW 18:22:41 37° WNW 18:22:47 37° WNW
Nadezhda 2 Rocket 4.4 18:16:53 10° N 18:23:22 84° E 18:24:23 65° SSE
Cosmos 371 Rocket 4.4 18:30:32 10° NNW 18:33:50 41° NW 18:33:50 41° NW
COSMO-SKYMED 1 4.2 18:36:23 31° NW 18:36:44 31° WNW 18:40:34 10° SW
USA 267 3.2 18:37:47 68° N 18:38:14 71° NNW 18:44:44 10° W
Meteor 1-27 Rocket 4.4 18:40:36 10° SSW 18:45:57 50° WNW 18:46:30 49° NW
Cosmos 2360 Rocket 3.1 18:43:59 10° NW 18:49:20 44° WSW 18:50:08 41° SW
Cosmos 2322 Rocket 4.5 19:07:26 10° NW 19:11:30 20° W 19:15:34 10° SSW
COSMOS 2428 4.4 19:08:12 10° NNW 19:10:45 28° NW 19:10:45 28° NW
NOSS 3-4 (A) 4.2 19:10:49 10° NW 19:16:19 58° WNW 19:16:19 58° WNW
NOSS 3-4 (C) 4.2 19:10:56 10° NW 19:16:23 58° WNW 19:16:23 58° WNW
ATLAS 2AS CENTAUR R/B 3.6 19:13:45 10° NW 19:18:44 44° NNW 19:18:44 44° NNW
Cosmos 2333 Rocket 4.4 19:47:49 10° NW 19:50:07 21° WNW 19:50:07 21° WNW
